Terminal Aerodrome Forecast
Issued by NWS

Home | Current Version | Previous Version | Text Only | Print | Product List | Glossary On
Versions: 1 2 3 4 5 6 7 8 9 10 11 12 13 14 15 16 17 18 19 20 21 22 23 24 25 26 27 28 29 30 31 32 33 34 35 36
333
FTUS45 KBOI 110742 AAA
TAFBKE
TAF AMD
KBKE 110742Z 1108/1206 VRB03KT P6SM VCFG FEW005 BKN060
      TEMPO 1110/1111 4SM BR SCT005
     FM111100 VRB03KT 1SM BR OVC002
     FM111900 13009KT P6SM FEW020 OVC040=

USA.gov is the U.S. government's official web portal to all federal, state and local government web resources and services.